CW0003 Weather Reports


Display with metric or nautical units.
time (UTC)temp
F
wind
direction
speed
MPH
gust
MPH
rain 1hr
in
rain 24hr
in
rain mn
in
humidity
%
barometer
mb
20181121160032 34 161 0.0 0.0 0.00 0.05 0.00 93 1011.9
20181121154524 33 182 0.0 0.0 0.00 0.05 0.00 94 1012.2
20181121153024 33 164 0.0 0.0 0.00 0.05 0.00 94 1012.5
20181121151528 33 188 0.0 0.0 0.00 0.05 0.00 94 1012.9
20181121150005 33 198 0.0 0.0 0.00 0.05 0.00 94 1013.2
20181121144501 33 191 0.0 0.0 0.00 0.06 0.00 95 1013.5
20181121143252 33 234 0.0 0.0 0.00 0.06 0.00 96 1013.5
20181121141616 32 303 0.0 0.0 0.00 0.06 0.00 96 1013.8
20181121140341 31 314 0.0 0.0 0.00 0.06 0.00 96 1014.0
20181121134625 29 315 0.0 0.0 0.00 0.06 0.00 95 1014.3
20181121133135 28 315 0.0 0.0 0.00 0.06 0.00 95 1014.6
20181121131639 27 315 0.0 0.0 0.00 0.06 0.00 95 1014.5
20181121130142 27 0.0 0.0 0.00 0.06 0.00 95 1014.2
20181121124633 0 0.0 0.0 0.00 0.06 0.00 1014.3
20181121123156 0 0.0 0.0 0.00 0.06 0.00 1014.2
20181121121535 0 0.0 0.0 0.00 0.06 0.00 1014.4
20181121120045 0 0.0 0.0 0.00 0.06 0.00 1014.5
20181121114545 0 0.0 0.0 0.00 0.06 0.00 1014.2
20181121113022 0 0.0 0.0 0.00 0.06 0.00 1014.1
20181121111657 0 0.0 0.0 0.00 0.06 0.00 1014.1
20181121110118 0 0.0 0.0 0.00 0.06 0.00 1014.1
20181121104631 0 0.0 0.0 0.00 0.08 0.00 1014.0
20181121103142 25 0.0 0.0 0.00 0.08 0.00 93 1014.1
20181121101600 25 0.0 0.0 0.00 0.08 0.00 93 1014.2
20181121100053 25 0.0 0.0 0.00 0.08 0.00 93 1014.2
20181121094608 25 0.0 0.0 0.00 0.09 0.00 93 1014.0
20181121093022 25 0.0 0.0 0.00 0.09 0.00 93 1014.0
20181121091526 26 0.0 0.0 0.00 0.09 0.00 93 1014.0
20181121090006 26 0.0 0.0 0.00 0.09 0.00 93 1013.7
20181121084613 26 0.0 0.0 0.00 0.09 0.00 92 1013.6
20181121083201 26 0.0 0.0 0.00 0.09 0.00 93 1013.7
20181121081635 27 0.0 0.0 0.00 0.09 0.00 93 1013.6
20181121080143 27 0.0 0.0 0.00 0.09 0.00 93 1013.7
20181121074647 28 0.0 0.0 0.00 0.10 0.00 93 1013.7
20181121073050 28 0.0 0.0 0.00 0.10 0.00 93 1013.7
20181121071544 28 0.0 0.0 0.00 0.10 0.00 93 1013.7
20181121070029 29 0.0 0.0 0.00 0.10 0.00 93 1013.8
20181121064512 29 0.0 0.0 0.00 0.11 0.00 94 1013.4
20181121063015 29 0.0 0.0 0.00 0.11 0.00 94 1013.5
20181121061700 29 0.0 0.0 0.00 0.11 0.00 94 1013.2
20181121060257 30 0.0 0.0 0.00 0.11 0.00 95 1013.1
20181121054637 30 0.0 0.0 0.00 0.12 0.00 95 1012.5
20181121053052 30 0.0 0.0 0.00 0.12 0.00 95 1012.5
20181121051555 30 0.0 0.0 0.00 0.12 0.00 95 1012.9
20181121050058 29 0.0 0.0 0.00 0.12 0.00 95 1012.4
20181121044527 29 0.0 0.0 0.00 0.12 0.12 95 1012.3
20181121043027 29 0.0 0.0 0.00 0.12 0.12 94 1012.1
20181121041534 29 0.0 0.0 0.00 0.12 0.12 94 1012.1
20181121040013 29 0.0 0.0 0.00 0.12 0.12 94 1012.1
20181121034636 30 0.0 0.0 0.00 0.16 0.12 94 1012.1
20181121033355 30 0.0 0.0 0.00 0.16 0.12 94 1012.1
20181121031728 30 0.0 0.0 0.00 0.16 0.12 94 1011.9
20181121030138 30 0.0 0.0 0.00 0.16 0.12 94 1011.9
20181121024618 31 0.0 0.0 0.00 0.18 0.12 94 1011.7
20181121023059 31 0.0 0.0 0.00 0.18 0.12 94 1011.8
20181121021537 31 0.0 0.0 0.00 0.18 0.12 94 1011.7
20181121020037 31 0.0 0.0 0.00 0.18 0.12 94 1011.7
20181121014522 32 0.0 0.0 0.00 0.20 0.12 94 1011.7
20181121013027 32 0.0 0.0 0.00 0.20 0.12 95 1011.7
20181121010112 32 0.0 0.0 0.00 0.20 0.12 95 1011.5
20181121004703 32 0.0 0.0 0.00 0.21 0.12 95 1011.4
20181121003137 33 0.0 0.0 0.00 0.21 0.12 95 1011.3
20181121001601 33 0.0 0.0 0.00 0.21 0.12 95 1011.2
20181121000047 33 0.0 0.0 0.00 0.21 0.12 95 1010.9
20181120234605 33 0.0 0.0 0.00 0.22 0.12 95 1010.7
20181120233057 33 0.0 0.0 0.01 0.22 0.12 95 1010.8
20181120231539 33 0.0 0.0 0.01 0.22 0.12 95 1010.6
20181120230018 33 0.0 0.0 0.01 0.22 0.12 95 1010.6
20181120224630 33 0.0 0.0 0.01 0.22 0.12 95 1010.4
20181120223236 33 0.0 0.0 0.00 0.21 0.11 95 1010.2
20181120221627 33 0.0 0.0 0.00 0.21 0.11 95 1010.0
20181120220142 33 0.0 0.0 0.00 0.21 0.11 95 1009.9
20181120214554 33 0.0 0.0 0.01 0.21 0.11 95 1009.6
20181120213103 33 0.0 0.0 0.01 0.21 0.11 95 1009.4
20181120211537 33 0.0 0.0 0.01 0.21 0.11 95 1009.2
20181120210124 33 0.0 0.0 0.01 0.21 0.11 95 1008.8
20181120204606 33 0.0 0.0 0.01 0.20 0.10 95 1008.7
20181120203004 33 0.0 0.0 0.01 0.20 0.10 95 1008.7
20181120201646 33 0.0 0.0 0.02 0.20 0.10 95 1008.5
20181120200110 33 0.0 0.0 0.02 0.20 0.10 95 1008.3
20181120194711 33 0.0 0.0 0.01 0.19 0.09 95 1008.2
20181120193110 33 0.0 0.0 0.01 0.19 0.09 95 1008.2
20181120191556 33 0.0 0.0 0.00 0.18 0.08 95 1008.2
20181120190040 33 0.0 0.0 0.00 0.18 0.08 95 1008.3
20181120184536 33 0.0 0.0 0.00 0.18 0.08 95 1008.4
20181120183025 33 0.0 0.0 0.00 0.18 0.08 95 1008.4
20181120181533 33 0.0 0.0 0.00 0.18 0.08 95 1008.5
20181120180008 33 0.0 0.0 0.01 0.18 0.08 95 1008.4
20181120174642 33 0.0 0.0 0.01 0.20 0.08 95 1008.5
20181120173139 33 0.0 0.0 0.01 0.20 0.08 95 1008.9
20181120171622 33 0.0 0.0 0.01 0.20 0.08 95 1009.2
20181120170114 33 0.0 0.0 0.00 0.19 0.07 95 1009.3
20181120164702 33 0.0 0.0 0.00 0.22 0.07 95 1009.1
20181120163041 33 0.0 0.0 0.00 0.22 0.07 95 1009.5
20181120161551 33 0.0 0.0 0.00 0.22 0.07 95 1010.1